User: anonymous   Login
Location: Stendal
(52.5994°N, 11.8400°E)
Time: 19:23:05
(UTC+02:00)
Language:

AO-27 - Orbit

View from above orbital plane
View from above orbital plane
View from above satellite
View from above satellite

Ground track
Ground track

The orbit data is extracted from the following two-line orbital elements,

1 22825U 93061C   21291.65444568  .00000021  00000-0  26268-4 0  9996
2 22825  98.9129 312.2655 0009108  41.8637 318.3240 14.30127791463593
Epoch (UTC): 18 October 2021 15:42:24
Eccentricity: 0.0009108
inclination: 98.9129°
perigee height: 785 km
apogee height: 798 km
right ascension of ascending node: 312.2655°
argument of perigee: 41.8637°
revolutions per day: 14.30127791
mean anomaly at epoch: 318.3240°
orbit number at epoch: 46359

The dashed part of the orbit path shows where the satellite is in the earth's shadow,  

DLR